Regional Weather Roundup
Issued by NWS

Home | Current Version | Previous Version | Graphics & Text | Print | Product List | Glossary On
Versions: 1 2 3 4 5 6 7 8 9 10 11 12 13 14 15 16 17 18 19 20 21 22 23 24 25 26 27 28 29 30 31 32 33 34 35 36 37 38 39 40 41 42 43 44 45 46 47 48 49 50
000
ASUS43 KTOP 041008
RWRKS

WEATHER ROUNDUP FOR KANSAS
NATIONAL WEATHER SERVICE GOODLAND KS
500 AM CDT WED MAY 04 2016

NOTE:  "FAIR" INDICATES FEW OR NO CLOUDS BELOW 12,000 FEET WITH NO
SIGNIFICANT WEATHER AND/OR OBSTRUCTIONS TO VISIBILITY.

KSZ001>006-013>018-027>032-041>047-041100-
NORTHWEST KANSAS

CITY           SKY/WX    TMP DP  RH WIND       PRES   REMARKS
GOODLAND       CLEAR     42  34  73 W10       30.15S
HAYS           CLEAR     45  36  70 W8        30.03F
HILL CITY      CLEAR     47  40  76 W8        30.06S
RUSSELL        CLEAR     47  43  86 W10       30.00S
$$

KSZ061>065-074>080-084>089-041100-
SOUTHWEST KANSAS

CITY           SKY/WX    TMP DP  RH WIND       PRES   REMARKS
DODGE CITY     CLEAR     49  41  74 W14       30.09S
ELKHART          N/A     45  35  68 W9          N/A
GARDEN CITY    CLEAR     42  38  85 NW12      30.11S
GREAT BEND     CLEAR     48  39  71 W12       30.03S
LIBERAL        CLEAR     43  36  75 W10       30.13S
PRATT          CLEAR     43  39  88 W12       30.04S
$$

KSZ066>073-081>083-090>101-041100-
SOUTHEAST KANSAS

CITY           SKY/WX    TMP DP  RH WIND       PRES   REMARKS
CHANUTE        CLEAR     52  45  77 W7        29.92F
COFFEYVILLE    CLEAR     54  45  71 W6        29.94F
HUTCHINSON     CLEAR     46  42  86 NW6       30.00S
MEDICINE LODGE   N/A     45  42  89 N3        30.04S
NEWTON         CLEAR     50  39  66 W8        29.99F
PARSONS        CLEAR     47  46  97 CALM      29.94F
WICHITA INTL   CLEAR     54  45  71 W10       29.99S
WICHITA JABRA  CLEAR     51  44  77 W9        29.98S
WICHITA MCCONL CLEAR     53  44  72 W5        29.98F
WINFIELD       CLEAR     48  44  86 NW3       30.31F
$$

KSZ007>012-019>026-033>040-048>060-102>105-041100-
NORTHEAST KANSAS

CITY           SKY/WX    TMP DP  RH WIND       PRES   REMARKS
CONCORDIA      CLEAR     49  43  80 NW9       29.97S
EMPORIA        CLEAR     53  44  71 W8        29.92F
LAWRENCE       CLEAR     53  46  77 NW10      29.88R
MANHATTAN      CLEAR     54  44  69 VRB3      29.94R
MARYSVILLE     CLEAR     50  45  81 N7        29.94S
OLATHE IND     CLEAR     54  44  69 W8        29.87S
OLATHE EXE     PTCLDY    54  43  66 NW7       29.86S
SALINA         CLEAR     54  45  71 W5        29.96F
TOPEKA BILLARD CLEAR     53  45  74 W8        29.90R
TOPEKA FORBES  CLEAR     57  45  64 NW14      29.90R
$$




USA.gov is the U.S. government's official web portal to all federal, state and local government web resources and services.